Regional Weather Roundup
Issued by NWS

Home | Current Version | Previous Version | Graphics & Text | Print | Product List | Glossary Off
Versions: 1 2 3 4 5 6 7 8 9 10 11 12 13 14 15 16 17 18 19 20 21 22 23 24 25 26 27 28 29 30 31 32 33 34 35 36 37 38 39 40 41 42 43 44 45 46 47 48

000
ASUS43 KDMX 221307
RWRIA

WEATHER ROUNDUP FOR IOWA
NATIONAL WEATHER SERVICE DES MOINES IA
800 AM CDT MON SEP 22 2014

NOTE: "FAIR" INDICATES FEW OR NO CLOUDS BELOW 12,000 FEET WITH NO
SIGNIFICANT WEATHER AND/OR OBSTRUCTIONS TO VISIBILITY.

* - THESE STATIONS ARE NOT NWS STATIONS...THUS NOT UNDER NWS
QUALITY CONTROL.  THEY ALSO DO NOT REPORT WEATHER SUCH
AS PRECIPITATION OR FOG.

IAZ001>003-012>014-020>022-031>034-043>046-221400-
   NORTHWEST IOWA

CITY           SKY/WX    TMP DP  RH WIND       PRES   REMARKS
CARROLL *      CLEAR     45  45 100 CALM      30.31S
CHEROKEE *       N/A     43  43 100 CALM      30.31S
DENISON *      CLEAR     45  45 100 CALM      30.30S
LE MARS *      CLEAR     45  43  93 CALM      30.31S
ORANGE CITY *  CLEAR     48  45  87 CALM      30.30S
SHELDON *      CLEAR     43  43 100 CALM      30.29S
SIOUX CITY     CLEAR     47  45  93 E5        30.30F
SPENCER        CLEAR     43  41  93 CALM      30.31R
STORM LAKE *   CLEAR     46  46 100 W6        30.31R
$$

IAZ055>058-069>071-079>083-090>094-221400-
   SOUTHWEST IOWA

CITY           SKY/WX    TMP DP  RH WIND       PRES   REMARKS
ATLANTIC *     PTCLDY    45  45 100 CALM      30.32S
AUDUBON *      CLEAR     45  39  81 CALM      30.33S
CLARINDA *     CLEAR     45  45 100 CALM      30.34S
COUNCIL BLFS * CLEAR     52  50  93 CALM      30.30F
CRESTON *      CLEAR     50  48  93 N5        30.33R
HARLAN  *      CLEAR     43  43 100 CALM      30.35F
LAMONI         CLEAR     49  47  93 NW3       30.32R
RED OAK *      CLEAR     46  46 100 CALM      30.33S
SHENANDOAH *   CLEAR     45  45 100 CALM      30.33S
$$

IAZ047>049-059>061-072>074-084-221400-
   CENTRAL IOWA

CITY           SKY/WX    TMP DP  RH WIND       PRES   REMARKS
AMES           CLEAR     47  46  97 CALM      30.31R
ANKENY *       SUNNY     50  48  93 CALM      30.32R
CHARITON *     SUNNY     48  48 100 CALM      30.32R
DES MOINES     CLEAR     50  47  89 NW5       30.31S
GRINNELL*      SUNNY     46  46 100 CALM      30.31S
KNOXVILLE *    SUNNY     48  46  93 NW5       30.30R
MARSHALLTOWN   FOG       43  43 100 CALM      30.30R VSB 1/4
PELLA *        SUNNY     48  48 100 CALM      30.32R
PERRY *          N/A     46  46 100 CALM      30.32S
$$

IAZ004>006-015-016-023>025-035-036-221400-
   NORTH CENTRAL IOWA

CITY           SKY/WX    TMP DP  RH WIND       PRES   REMARKS
ALGONA *       CLEAR     48  46  93 W5        30.31S
CLARION *        N/A     43  43 100 CALM      30.31S
ESTHERVILLE    CLEAR     43  42  97 SW3       30.30R
FORT DODGE *   CLEAR     45  43  93 CALM      30.32S
MASON CITY     CLEAR     46  45  96 W9        30.31R
FOREST CITY *  CLEAR     43  43 100 CALM      30.31R
IOWA FALLS *     N/A     45  43  93 CALM      30.31S FOG
$$

IAZ007>011-017>019-026>030-037>042-050>054-066-221400-
   NORTHEAST IOWA

CITY           SKY/WX    TMP DP  RH WIND       PRES   REMARKS
CEDAR RAPIDS   SUNNY     45  45 100 N6        30.30R
CHARLES CITY * SUNNY     45  45 100 CALM      30.30R FOG
CLINTON *      SUNNY     45  43  93 N5        30.32S
DECORAH *      SUNNY     45  45 100 CALM      30.28R
DUBUQUE        SUNNY     41  40  96 SW3       30.30R
MONTICELLO *   SUNNY     43  43 100 CALM      30.30S
OELWEIN *      SUNNY     45  45 100 CALM      30.30S
WATERLOO       SUNNY     43  42  97 CALM      30.29S
$$

IAZ064-065-067-068-078-221400-
   EAST CENTRAL IOWA

CITY           SKY/WX    TMP DP  RH WIND       PRES   REMARKS
DAVENPORT      SUNNY     45  43  93 CALM      30.30R
IOWA CITY      SUNNY     47  46  97 CALM      30.32R
MT. PLEASANT * SUNNY     50  48  93 CALM      30.31R
MUSCATINE *    SUNNY     46  45  93 CALM      30.31R
QUAD CITIES    SUNNY     46  44  93 CALM      30.30R
$$

IAZ062-063-075>077-085>089-095>099-221400-
   SOUTHEAST IOWA

CITY           SKY/WX    TMP DP  RH WIND       PRES   REMARKS
BURLINGTON     SUNNY     51  48  89 N5        30.30R
FAIRFIELD *    SUNNY     46  45  93 CALM      30.31R
FORT MADISON * SUNNY     48  48 100 CALM      30.31R
KEOKUK *       SUNNY     50  48  93 N5        30.30R
OSKALOOSA *      N/A     46  45  93 CALM      30.32R
CENTERVILLE *  SUNNY     48  48 100 CALM      30.32S
OTTUMWA        SUNNY     47  45  93 NW3       30.30S
WASHINGTON *   SUNNY     46  46 100 CALM      30.31R
$$

ABBREVIATIONS USED IN REMARKS
   TC - TEMPERATURES IN CELSIUS
  WCI - WIND CHILL INDEX
   HX - HEAT INDEX
  VSB - VISIBILITY
$$




USA.gov is the U.S. government's official web portal to all federal, state and local government web resources and services.